Satellite: NOAA-11 Catalog number: 19531 Epoch time: 13289.35312644 Element set: 553 Inclination: 098.7039 deg RA of node: 009.4869 deg Eccentricity: 0.0010181 Arg of perigee: 274.3049 deg Mean anomaly: 085.6961 deg Mean motion: 14.15031457 rev/day Decay rate: 1.08e-06 rev/day^2 Epoch rev: 29325 Checksum: 303
Satellite: NOAA-12 Catalog number: 21263 Epoch time: 13289.47247522 Element set: 10 Inclination: 098.6884 deg RA of node: 313.8497 deg Eccentricity: 0.0013346 Arg of perigee: 223.1138 deg Mean anomaly: 241.2877 deg Mean motion: 14.25590823 rev/day Decay rate: 4.5e-07 rev/day^2 Epoch rev: 16583 Checksum: 302
Satellite: MET-3/5 Catalog number: 21655 Epoch time: 13289.79781456 Element set: 809 Inclination: 082.5569 deg RA of node: 168.3850 deg Eccentricity: 0.0013315 Arg of perigee: 181.2680 deg Mean anomaly: 178.8411 deg Mean motion: 13.17050888 rev/day Decay rate: -1.42e-06 rev/day^2 Epoch rev: 6594 Checksum: 332
Satellite: MET-2/21 Catalog number: 22782 Epoch time: 13289.02324556 Element set: 870 Inclination: 082.5524 deg RA of node: 007.0405 deg Eccentricity: 0.0021727 Arg of perigee: 227.3874 deg Mean anomaly: 187.1469 deg Mean motion: 13.83715081 rev/day Decay rate: 4.0e-07 rev/day^2 Epoch rev: 1635 Checksum: 288
Satellite: OKEAN-4 Catalog number: 23317 Epoch time: 13289.84019676 Element set: 351 Inclination: 082.5364 deg RA of node: 295.9150 deg Eccentricity: 0.0021470 Arg of perigee: 179.8803 deg Mean anomaly: 174.5038 deg Mean motion: 14.84678570 rev/day Decay rate: 1.209e-05 rev/day^2 Epoch rev: 2698 Checksum: 326
Satellite: NOAA-14 Catalog number: 23455 Epoch time: 13289.44755376 Element set: 488 Inclination: 098.7972 deg RA of node: 012.0141 deg Eccentricity: 0.0009510 Arg of perigee: 019.8867 deg Mean anomaly: 108.8868 deg Mean motion: 14.13923222 rev/day Decay rate: 1.11e-06 rev/day^2 Epoch rev: 96950 Checksum: 323
Satellite: NOAA-15 Catalog number: 25338 Epoch time: 13289.47799691 Element set: 913 Inclination: 098.7356 deg RA of node: 279.0906 deg Eccentricity: 0.0011658 Arg of perigee: 132.5822 deg Mean anomaly: 030.7640 deg Mean motion: 14.25275792 rev/day Decay rate: 1.48e-06 rev/day^2 Epoch rev: 80212 Checksum: 330
Satellite: RESURS Catalog number: 25394 Epoch time: 13290.11393823 Element set: 494 Inclination: 098.3791 deg RA of node: 260.2011 deg Eccentricity: 0.0000594 Arg of perigee: 196.9696 deg Mean anomaly: 293.5374 deg Mean motion: 14.24339220 rev/day Decay rate: 2.8e-07 rev/day^2 Epoch rev: 79371 Checksum: 308
Satellite: FENGYUN1 Catalog number: 25730 Epoch time: 13289.82314054 Element set: 988 Inclination: 098.8904 deg RA of node: 247.9191 deg Eccentricity: 0.0027885 Arg of perigee: 067.1739 deg Mean anomaly: 348.9941 deg Mean motion: 14.10736858 rev/day Decay rate: 2.328e-05 rev/day^2 Epoch rev: 74319 Checksum: 355
Satellite: OKEAN-0 Catalog number: 25860 Epoch time: 13289.83960078 Element set: 73 Inclination: 098.0080 deg RA of node: 250.7698 deg Eccentricity: 0.0002138 Arg of perigee: 108.9115 deg Mean anomaly: 306.0452 deg Mean motion: 14.74728735 rev/day Decay rate: 6.72e-06 rev/day^2 Epoch rev: 76628 Checksum: 318
Satellite: NOAA-16 Catalog number: 26536 Epoch time: 13289.44300227 Element set: 402 Inclination: 099.0275 deg RA of node: 343.3216 deg Eccentricity: 0.0011292 Arg of perigee: 150.5119 deg Mean anomaly: 325.9329 deg Mean motion: 14.12927072 rev/day Decay rate: 2.28e-06 rev/day^2 Epoch rev: 67369 Checksum: 292
Satellite: NOAA-17 Catalog number: 27453 Epoch time: 13289.44226241 Element set: 308 Inclination: 098.3120 deg RA of node: 297.0924 deg Eccentricity: 0.0012274 Arg of perigee: 165.0489 deg Mean anomaly: 298.8378 deg Mean motion: 14.24627544 rev/day Decay rate: 1.39e-06 rev/day^2 Epoch rev: 58798 Checksum: 337
Satellite: NOAA-18 Catalog number: 28654 Epoch time: 13289.42078595 Element set: 799 Inclination: 099.1169 deg RA of node: 259.4758 deg Eccentricity: 0.0013620 Arg of perigee: 225.4082 deg Mean anomaly: 286.3076 deg Mean motion: 14.11874226 rev/day Decay rate: 2.74e-06 rev/day^2 Epoch rev: 43316 Checksum: 340
Satellite: NOAA-19 Catalog number: 33591 Epoch time: 13289.46437409 Element set: 972 Inclination: 098.9157 deg RA of node: 230.6301 deg Eccentricity: 0.0015126 Arg of perigee: 088.0205 deg Mean anomaly: 049.4502 deg Mean motion: 14.11562651 rev/day Decay rate: 2.68e-06 rev/day^2 Epoch rev: 24160 Checksum: 296
/EX SB KEPS @ AMSAT $ORB13290.M Orbital Elements 13290.MISC
HR AMSAT ORBITAL ELEMENTS FOR MANNED AND MISCELLANEOUS SATELLITES FROM WA5QGD FORT WORTH,TX October 17, 2013 BID: ORB13290.M TO ALL RADIO AMATEURS BT
Satellite: HUBBLE Catalog number: 20580 Epoch time: 13289.84173819 Element set: 354 Inclination: 028.4697 deg RA of node: 195.0945 deg Eccentricity: 0.0003022 Arg of perigee: 206.0202 deg Mean anomaly: 223.4255 deg Mean motion: 15.04024040 rev/day Decay rate: 2.990e-05 rev/day^2 Epoch rev: 8802 Checksum: 268
Satellite: ISS Catalog number: 25544 Epoch time: 13290.41521157 Element set: 823 Inclination: 051.6518 deg RA of node: 222.6970 deg Eccentricity: 0.0002665 Arg of perigee: 038.3962 deg Mean anomaly: 063.2634 deg Mean motion: 15.49695258 rev/day Decay rate: 1.2626e-04 rev/day^2 Epoch rev: 85366 Checksum: 308
Satellite: CO-58 Catalog number: 28895 Epoch time: 13289.56186215 Element set: 598 Inclination: 097.8536 deg RA of node: 138.8774 deg Eccentricity: 0.0018675 Arg of perigee: 062.1589 deg Mean anomaly: 298.1502 deg Mean motion: 14.61268087 rev/day Decay rate: 7.27e-06 rev/day^2 Epoch rev: 42466 Checksum: 376
Satellite: FALCON Catalog number: 30776 Epoch time: 13289.71278597 Element set: 716 Inclination: 035.4299 deg RA of node: 175.7731 deg Eccentricity: 0.0002661 Arg of perigee: 279.3528 deg Mean anomaly: 182.6581 deg Mean motion: 15.11684997 rev/day Decay rate: 9.284e-05 rev/day^2 Epoch rev: 36381 Checksum: 354
Satellite: MAST Catalog number: 31126 Epoch time: 13289.43394130 Element set: 878 Inclination: 097.8914 deg RA of node: 278.5040 deg Eccentricity: 0.0093603 Arg of perigee: 035.4803 deg Mean anomaly: 118.1543 deg Mean motion: 14.54707051 rev/day Decay rate: 8.71e-06 rev/day^2 Epoch rev: 34494 Checksum: 300
Satellite: CAPE1 Catalog number: 31130 Epoch time: 13289.40523422 Element set: 878 Inclination: 097.9102 deg RA of node: 274.8907 deg Eccentricity: 0.0101308 Arg of perigee: 051.8170 deg Mean anomaly: 309.2099 deg Mean motion: 14.53662333 rev/day Decay rate: 1.184e-05 rev/day^2 Epoch rev: 34438 Checksum: 289
Satellite: COMPASS Catalog number: 32787 Epoch time: 13289.43022496 Element set: 755 Inclination: 097.7388 deg RA of node: 344.7928 deg Eccentricity: 0.0013114 Arg of perigee: 263.3848 deg Mean anomaly: 096.5875 deg Mean motion: 14.85971713 rev/day Decay rate: 3.570e-05 rev/day^2 Epoch rev: 29596 Checksum: 360
Satellite: AAUSAT2 Catalog number: 32788 Epoch time: 13290.13999023 Element set: 739 Inclination: 097.7397 deg RA of node: 346.2151 deg Eccentricity: 0.0012739 Arg of perigee: 260.2446 deg Mean anomaly: 099.7331 deg Mean motion: 14.86477086 rev/day Decay rate: 4.100e-05 rev/day^2 Epoch rev: 29611 Checksum: 325
Satellite: DO-64 Catalog number: 32789 Epoch time: 13289.68464457 Element set: 772 Inclination: 097.7569 deg RA of node: 350.3039 deg Eccentricity: 0.0012151 Arg of perigee: 252.1152 deg Mean anomaly: 224.5360 deg Mean motion: 14.89469555 rev/day Decay rate: 7.624e-05 rev/day^2 Epoch rev: 29620 Checksum: 341
Satellite: CO-66 Catalog number: 32791 Epoch time: 13289.14140760 Element set: 730 Inclination: 097.7386 deg RA of node: 343.7083 deg Eccentricity: 0.0013625 Arg of perigee: 266.8109 deg Mean anomaly: 146.0726 deg Mean motion: 14.85016341 rev/day Decay rate: 3.210e-05 rev/day^2 Epoch rev: 29582 Checksum: 307
Satellite: RS-30 Catalog number: 32953 Epoch time: 13290.16001363 Element set: 296 Inclination: 082.5070 deg RA of node: 352.3437 deg Eccentricity: 0.0017755 Arg of perigee: 329.8075 deg Mean anomaly: 030.1977 deg Mean motion: 12.43037942 rev/day Decay rate: 1.0e-07 rev/day^2 Epoch rev: 24506 Checksum: 276
Satellite: METEOR-M Catalog number: 35865 Epoch time: 13290.31560704 Element set: 899 Inclination: 098.5886 deg RA of node: 339.6506 deg Eccentricity: 0.0003458 Arg of perigee: 078.7880 deg Mean anomaly: 281.3691 deg Mean motion: 14.21893967 rev/day Decay rate: -3.5e-07 rev/day^2 Epoch rev: 21182 Checksum: 342
Satellite: RS-38 Catalog number: 35869 Epoch time: 13290.25716437 Element set: 856 Inclination: 098.5816 deg RA of node: 339.4712 deg Eccentricity: 0.0005525 Arg of perigee: 080.0187 deg Mean anomaly: 280.1617 deg Mean motion: 14.22148427 rev/day Decay rate: 1.4e-07 rev/day^2 Epoch rev: 21184 Checksum: 310
Satellite: JUGNU Catalog number: 37839 Epoch time: 13288.36261753 Element set: 482 Inclination: 019.9620 deg RA of node: 298.6048 deg Eccentricity: 0.0018883 Arg of perigee: 166.4214 deg Mean anomaly: 320.0841 deg Mean motion: 14.12188988 rev/day Decay rate: 4.78e-06 rev/day^2 Epoch rev: 10390 Checksum: 324
Satellite: SRMSAT Catalog number: 37841 Epoch time: 13288.44717847 Element set: 482 Inclination: 019.9725 deg RA of node: 312.5283 deg Eccentricity: 0.0012024 Arg of perigee: 116.1082 deg Mean anomaly: 024.8224 deg Mean motion: 14.10253717 rev/day Decay rate: 4.20e-06 rev/day^2 Epoch rev: 10377 Checksum: 272
Satellite: RAX-2 Catalog number: 37853 Epoch time: 13289.72291184 Element set: 619 Inclination: 101.6982 deg RA of node: 199.6842 deg Eccentricity: 0.0232293 Arg of perigee: 038.7517 deg Mean anomaly: 013.9592 deg Mean motion: 14.84563030 rev/day Decay rate: 1.1657e-04 rev/day^2 Epoch rev: 10647 Checksum: 328
